Tracking 19153 objects as of 26-Apr-2018
HD Live streaming from Space Station
objects crossing your sky now

SCOUT X-4 DEB

Track SCOUT X-4 DEB now!
10-day predictions


NORAD ID: 2088
Int'l Code: 1965-093D
Perigee: 656.0 km
Apogee: 782.9 km
Inclination: 59.7 °
Period: 99.0 minutes
Semi major axis: 7090 km
RCS: 0.0298 m2 (small)
Launch date: November 19, 1965
Source: United States (US)
Launch site: WALLOPS ISLAND (WLPIS)

Note: This is SATELLITE DEBRIS
aabbcc
Your satellite tracking list
Your tracking list is empty




NASA's NSSDC Master Catalog

Two Line Element Set (TLE):
1 02088U 65093D   18116.18869224  .00000007  00000-0  38961-4 0  9996
2 02088  59.7183 102.6240 0089532 155.1305 205.4094 14.54098202741501
Source of the keplerian elements: AFSPC